Torna al catalogo

CZ-6A DEB

AttivoPO
NORAD 60840·DEBRIS·🇨🇳 China

Lanciato Aug 6, 2024 da Taiyuan Satellite Launch Center

Loading…

Prossimi Passaggi (prossime 24 ore)

TLE

AggiornatoSource: Space-Track

Epoca: Sep 14, 2026, 10:01 UTC

1 60840U 24140HT  26257.41790319  .00003346  00000-0  44139-3 0  9995
2 60840  88.9842 256.2238 0113552 239.2839 119.7157 14.75380977111948

Traccia CZ-6A DEB in tempo reale con AllMySat

Download on the App Store